DW8065 Weather Reports


Display with metric or nautical units.
time (UTC)temp
F
wind
direction
speed
MPH
gust
MPH
rain 1hr
in
rain 24hr
in
rain mn
in
humidity
%
barometer
mb
20260901154617 63 212 0.0 1.0 0.00 0.26 0.26 87 1017.9
20260901153105 63 41 0.0 0.0 0.01 0.26 0.26 90 1017.8
20260901151553 62 38 0.0 0.0 0.01 0.26 0.26 91 1018.1
20260901144549 61 117 0.0 1.0 0.02 0.26 0.26 91 1018.1
20260901143049 61 141 0.0 1.0 0.01 0.25 0.25 92 1017.8
20260901141558 61 185 0.0 0.0 0.01 0.25 0.25 92 1017.5
20260901140053 61 187 0.0 0.0 0.02 0.25 0.25 92 1017.5
20260901134545 60 34 0.0 1.0 0.01 0.24 0.24 92 1017.6
20260901133042 60 34 0.0 0.0 0.01 0.24 0.24 92 1017.9
20260901131543 59 34 0.0 0.0 0.02 0.24 0.24 92 1018.0
20260901130040 59 34 0.0 1.0 0.05 0.23 0.23 93 1018.1
20260901124546 59 34 0.0 3.0 0.08 0.23 0.23 92 1018.3
20260901123039 59 360 0.0 0.0 0.11 0.23 0.23 93 1018.2
20260901121540 59 360 0.0 0.0 0.12 0.22 0.22 93 1018.3
20260901120036 59 360 0.0 0.0 0.10 0.18 0.18 92 1018.3
20260901114537 59 360 0.0 0.0 0.12 0.15 0.15 92 1018.2
20260901113049 59 360 0.0 0.0 0.10 0.12 0.12 92 1018.4
20260901111533 59 332 1.0 5.0 0.10 0.10 0.10 92 1018.3
20260901110032 59 13 0.0 1.0 0.08 0.08 0.08 92 1017.9
20260901104530 59 152 0.0 1.0 0.03 0.03 0.03 91 1017.6
20260901103033 59 27 0.0 2.0 0.01 0.01 0.01 91 1017.6
20260901101529 59 32 0.0 0.0 0.00 0.00 0.00 90 1017.2
20260901100028 59 32 0.0 0.0 0.00 0.00 0.00 90 1017.1
20260901094528 59 32 0.0 1.0 0.00 0.00 0.00 90 1017.3
20260901093030 59 32 0.0 2.0 0.00 0.00 0.00 91 1017.3
20260901091525 59 32 0.0 1.0 0.00 0.00 0.00 90 1017.3
20260901090024 59 31 0.0 0.0 0.00 0.00 0.00 90 1017.0
20260901084522 59 31 0.0 0.0 0.00 0.00 0.00 90 1017.2
20260901083021 59 31 0.0 1.0 0.00 0.00 0.00 90 1017.3
20260901081520 59 27 0.0 1.0 0.00 0.00 0.00 90 1017.4
20260901080023 59 27 0.0 1.0 0.00 0.00 0.00 91 1017.4
20260901074520 59 25 0.0 0.0 0.00 0.00 0.00 91 1017.3
20260901073017 59 25 0.0 0.0 0.00 0.00 0.00 91 1017.4
20260901071515 59 27 0.0 1.0 0.00 0.00 0.00 91 1017.4
20260901070019 58 27 0.0 0.0 0.00 0.00 0.00 91 1017.6
20260901064519 58 27 0.0 0.0 0.00 0.00 0.00 91 1017.7
20260901063024 58 26 0.0 0.0 0.00 0.00 0.00 91 1017.8
20260901061509 58 27 0.0 0.0 0.00 0.00 0.00 91 1018.0
20260901060009 58 27 0.0 1.0 0.00 0.00 0.00 91 1018.1
20260901054507 58 26 0.0 1.0 0.00 0.00 0.00 91 1018.2
20260901053005 58 18 0.0 2.0 0.00 0.00 0.00 92 1018.1
20260901051504 57 23 0.0 0.0 0.00 0.00 0.00 92 1018.3
20260901050004 57 23 0.0 1.0 0.00 0.00 0.00 92 1018.4
20260901044502 57 84 0.0 0.0 0.00 0.00 0.00 91 1018.2
20260901043002 57 56 0.0 1.0 0.00 0.00 0.00 91 1018.2
20260901041559 57 45 0.0 0.0 0.00 0.00 0.00 91 1018.2
20260901040057 58 44 0.0 0.0 0.00 0.00 0.00 91 1018.0
20260901034557 58 44 0.0 1.0 0.00 0.00 0.00 91 1018.1
20260901033059 57 172 0.0 0.0 0.00 0.00 0.00 90 1017.9
20260901031556 57 172 0.0 0.0 0.00 0.00 0.00 89 1018.1
20260901030055 57 172 0.0 0.0 0.00 0.00 0.00 88 1018.0
20260901024555 57 172 0.0 0.0 0.00 0.00 0.00 87 1017.9
20260901023055 57 172 0.0 0.0 0.00 0.00 0.00 87 1017.9
20260901021554 58 172 0.0 0.0 0.00 0.00 0.00 86 1017.9
20260901020056 59 172 0.0 0.0 0.00 0.00 0.00 85 1017.8
20260901014554 59 172 0.0 0.0 0.00 0.00 0.00 85 1017.8
20260901013102 60 172 0.0 0.0 0.00 0.00 0.00 84 1017.8
20260901011551 60 173 0.0 0.0 0.00 0.00 0.00 83 1017.7
20260901010056 61 173 0.0 1.0 0.00 0.00 0.00 82 1017.7
20260901004552 61 173 0.0 0.0 0.00 0.01 0.00 81 1017.7
20260901003049 61 173 0.0 0.0 0.00 0.01 0.00 81 1017.7
20260901001547 62 173 0.0 2.0 0.00 0.01 0.00 80 1017.4
20260901000046 62 159 0.0 0.0 0.00 0.01 0.00 78 1017.5
20260831234552 63 158 0.0 1.0 0.00 0.03 0.00 76 1017.5
20260831233053 65 158 0.0 1.0 0.00 0.03 0.00 74 1017.5
20260831231544 66 143 0.0 3.0 0.00 0.03 0.00 72 1017.5
20260831230043 68 181 0.0 1.0 0.00 0.03 0.00 68 1017.7
20260831224543 70 186 0.0 2.0 0.00 0.03 0.00 64 1017.8
20260831223052 72 206 1.0 2.0 0.00 0.03 0.00 62 1017.6
20260831221540 76 272 0.0 1.0 0.00 0.03 0.00 55 1017.7
20260831220042 76 307 0.0 3.0 0.00 0.03 0.00 51 1017.6
20260831214554 75 286 1.0 3.0 0.00 0.03 0.00 53 1017.7
20260831213037 75 315 1.0 4.0 0.00 0.03 0.00 59 1017.7
20260831211538 74 276 1.0 3.0 0.00 0.03 0.00 60 1017.6
20260831210038 74 322 3.0 7.0 0.00 0.03 0.00 62 1017.6
20260831204534 74 307 4.0 7.0 0.00 0.03 0.00 61 1017.6
20260831203031 75 326 3.0 7.0 0.00 0.03 0.00 56 1018.0